Regional Weather Roundup
Issued by NWS

Home | Current Version | Previous Version | Graphics & Text | Print | Product List | Glossary On
Versions: 1 2 3 4 5 6 7 8 9 10 11 12 13 14 15 16 17 18 19 20 21 22 23 24 25 26 27 28 29 30 31 32 33 34 35 36 37 38 39 40 41 42 43 44 45 46 47 48 49
000
ASUS45 KCYS 031610
RWRWY

WYOMING REGIONAL WEATHER ROUNDUP
NATIONAL WEATHER SERVICE CHEYENNE WY
1000 AM MDT SUN MAY 03 2015

NOTE:  "FAIR" INDICATES FEW OR NO CLOUDS BELOW 12,000 FEET
WITH NO SIGNIFICANT WEATHER AND/OR OBSTRUCTIONS TO VISIBILITY.

WYZ001-031700-
YELLOWSTONE NATIONAL PARK

CITY           SKY/WX    TMP DP  RH WIND       PRES   REMARKS
LK YELLOWSTONE   N/A     43  27  53 VRB3      30.06F
W YELLOWSTONE  NOT AVBL

$$
WYZ002>013-054>058-071-098>099-031700-
NORTHERN WYOMING

CITY           SKY/WX    TMP DP  RH WIND       PRES   REMARKS
JACKSON        MOSUNNY   54  37  54 S7        30.02F
CODY           FAIR      50  34  53 N14       30.00F
GREYBULL       FAIR      56  32  40 W12       29.97S
WORLAND        FAIR      55  34  45 N8        29.99S
SHERIDAN       FAIR      54  37  52 E7        30.03F
BUFFALO        CLOUDY    52  38  58 N10       30.04S
GILLETTE       FAIR      58  35  42 NE14      30.01R
HULETT         FAIR      57  34  41 NE13G18   30.03R
NEWCASTLE      FAIR      64  32  29 NE6       29.95R

$$
WYZ014>020-022>026-101>103-031700-
CENTRAL WYOMING

CITY           SKY/WX    TMP DP  RH WIND       PRES   REMARKS
BIG PINEY      CLOUDY    53  34  48 CALM      30.07R
PINEDALE       CLOUDY    52  34  50 CALM      30.08S
DUBOIS         FAIR      50  32  50 NE6       30.04S
LANDER         FAIR      59  33  37 N13       29.98S
RIVERTON       FAIR      61  31  32 NE16G25   29.98F
CASPER         FAIR      56  33  42 E6        30.02S
DOUGLAS        FAIR      59  35  40 NW6       30.00R

$$
WYZ021-027>030-104>119-031700-
SOUTHERN WYOMING

CITY           SKY/WX    TMP DP  RH WIND       PRES   REMARKS
EVANSTON       PTSUNNY   56  35  45 SE3       30.06R
KEMMERER       FAIR      55  34  44 SW6       30.07S
FORT BRIDGER   MOSUNNY   59  39  47 SE6       30.09S
ROCK SPRINGS   CLOUDY    51  38  60 W16       30.07R
DIXON          FAIR      58  36  44 W3        30.07S
RAWLINS        CLOUDY    58  33  39 W10       30.04S
SARATOGA       FAIR      61  32  33 N5        30.06S
LARAMIE        FAIR      56  34  43 NE8       30.06R
CHEYENNE       FAIR      64  33  31 NW24G31   30.01R
TORRINGTON     FAIR      61  34  36 NE17      29.95R
PINE BLUFFS    FAIR      66  37  34 NW15G22   29.97R

$$


USA.gov is the U.S. government's official web portal to all federal, state and local government web resources and services.